SVR2007 USSS-UZTT

Flight info

Callsign SVR2007
Flight time N/A
Altitude 35000
Route ASLIM T414 USURA R482 GUPRI T763 BUREM N993 LANOR L145 ALZIS M168 GENDI Z632 NIMAG DCT DOSOR
Aircraft A20N/M-VGDW/C

Departure

Time N/A
Airport Koltsovo Airport (USSS)

Arrival

Time 2026-05-01 08:53
Airport Tashkent International Airport (UZTT)
Time Latitude Longitude Altitude Speed Heading
2026-05-01 07:23 49.89774 66.20940 34828 ft 432 kts 158°
2026-05-01 07:24 49.81747 66.27291 34844 ft 432 kts 158°
2026-05-01 07:24 49.76440 66.31472 34840 ft 431 kts 158°
2026-05-01 07:25 49.71049 66.35425 34836 ft 429 kts 161°
2026-05-01 07:25 49.65631 66.39229 34840 ft 429 kts 160°
2026-05-01 07:26 49.60209 66.43038 34856 ft 430 kts 161°
2026-05-01 07:26 49.54789 66.46830 34861 ft 430 kts 161°
2026-05-01 07:27 49.49349 66.50621 34859 ft 430 kts 161°
2026-05-01 07:27 49.43940 66.54384 34862 ft 429 kts 161°
2026-05-01 07:28 49.38504 66.58154 34871 ft 429 kts 161°
2026-05-01 07:28 49.33073 66.61913 34868 ft 429 kts 161°
2026-05-01 07:29 49.27618 66.65678 34873 ft 429 kts 162°
2026-05-01 07:29 49.22215 66.69401 34883 ft 429 kts 162°
2026-05-01 07:30 49.16802 66.73118 34882 ft 429 kts 162°
2026-05-01 07:30 49.11367 66.76846 34882 ft 428 kts 162°
2026-05-01 07:31 49.05962 66.80540 34895 ft 429 kts 162°
2026-05-01 07:32 48.92405 66.89877 34903 ft 430 kts 160°
2026-05-01 07:33 48.84400 66.95940 34904 ft 430 kts 160°
2026-05-01 07:33 48.76387 67.01980 34911 ft 430 kts 161°
2026-05-01 07:34 48.68396 67.07986 34915 ft 431 kts 161°
2026-05-01 07:35 48.63033 67.12009 34926 ft 431 kts 161°
2026-05-01 07:35 48.57674 67.16018 34913 ft 432 kts 161°
2026-05-01 07:36 48.52271 67.20052 34921 ft 433 kts 161°
2026-05-01 07:36 48.46899 67.24056 34921 ft 433 kts 161°
2026-05-01 07:37 48.38820 67.30054 34908 ft 435 kts 161°
2026-05-01 07:37 48.33389 67.33957 34907 ft 433 kts 163°
2026-05-01 07:38 48.27914 67.37749 34910 ft 433 kts 163°
2026-05-01 07:39 48.19696 67.43450 34910 ft 436 kts 163°
2026-05-01 07:39 48.11488 67.49139 34911 ft 437 kts 163°
2026-05-01 07:40 48.05981 67.52944 34909 ft 437 kts 163°
2026-05-01 07:40 48.00458 67.56754 34909 ft 438 kts 163°
2026-05-01 07:41 47.94947 67.60550 34906 ft 439 kts 162°
2026-05-01 07:42 47.86631 67.66259 34904 ft 439 kts 163°
2026-05-01 07:42 47.81077 67.70059 34900 ft 440 kts 163°
2026-05-01 07:43 47.75466 67.73389 34906 ft 435 kts 168°
2026-05-01 07:43 47.66777 67.76668 34907 ft 427 kts 177°
2026-05-01 07:44 47.54978 67.78600 34905 ft 426 kts 181°
2026-05-01 07:45 47.49098 67.79460 34909 ft 426 kts 181°
2026-05-01 07:45 47.43200 67.80315 34912 ft 426 kts 180°
2026-05-01 07:46 47.37313 67.81165 34916 ft 426 kts 180°
2026-05-01 07:47 47.28505 67.82426 34920 ft 426 kts 180°
2026-05-01 07:47 47.22607 67.83270 34920 ft 427 kts 180°
2026-05-01 07:48 47.13730 67.84537 34920 ft 428 kts 180°
2026-05-01 07:48 47.07831 67.85378 34920 ft 428 kts 180°
2026-05-01 07:49 46.98943 67.86616 34921 ft 429 kts 181°
2026-05-01 07:50 46.93036 67.87211 34923 ft 428 kts 181°
2026-05-01 07:50 46.84130 67.88084 34924 ft 428 kts 181°
2026-05-01 07:51 46.78209 67.88677 34929 ft 427 kts 181°
2026-05-01 07:52 46.69333 67.89570 34934 ft 428 kts 181°
2026-05-01 07:52 46.63400 67.90168 34941 ft 427 kts 181°
2026-05-01 07:53 46.54544 67.91054 34946 ft 427 kts 181°
2026-05-01 07:53 46.48607 67.91868 34946 ft 429 kts 179°
2026-05-01 07:55 46.33798 67.94108 34947 ft 429 kts 179°
2026-05-01 07:56 46.18940 67.96304 34947 ft 429 kts 179°
2026-05-01 07:57 46.10055 67.97610 34949 ft 430 kts 179°
2026-05-01 07:58 45.98206 67.99346 34952 ft 428 kts 179°
2026-05-01 07:59 45.86331 68.01065 34950 ft 430 kts 178°
2026-05-01 08:00 45.68492 68.03645 34960 ft 431 kts 178°
2026-05-01 08:01 45.56573 68.05360 34963 ft 431 kts 178°
2026-05-01 08:02 45.47637 68.06639 34957 ft 432 kts 178°
2026-05-01 08:03 45.38676 68.07919 34954 ft 433 kts 178°
2026-05-01 08:03 45.29709 68.09196 34953 ft 433 kts 178°
2026-05-01 08:04 45.17730 68.10895 34943 ft 434 kts 178°
2026-05-01 08:05 45.08734 68.12167 34944 ft 435 kts 178°
2026-05-01 08:06 44.99699 68.13440 34939 ft 434 kts 178°
2026-05-01 08:07 44.87707 68.15122 34943 ft 434 kts 177°
2026-05-01 08:08 44.78680 68.16386 34947 ft 435 kts 177°
2026-05-01 08:09 44.66678 68.18059 34952 ft 435 kts 177°
2026-05-01 08:09 44.60648 68.18898 34961 ft 436 kts 177°
2026-05-01 08:10 44.48624 68.20567 34970 ft 436 kts 177°
2026-05-01 08:11 44.36581 68.22225 34970 ft 436 kts 177°
2026-05-01 08:12 44.27535 68.23472 34980 ft 435 kts 177°
2026-05-01 08:13 44.18518 68.24712 34992 ft 436 kts 177°
2026-05-01 08:13 44.09465 68.25949 35015 ft 437 kts 176°
2026-05-01 08:14 44.03450 68.26769 35031 ft 437 kts 177°
2026-05-01 08:14 43.97393 68.27593 35045 ft 437 kts 177°
2026-05-01 08:15 43.88337 68.28822 35049 ft 437 kts 176°
2026-05-01 08:16 43.82286 68.29642 35044 ft 437 kts 176°
2026-05-01 08:16 43.76221 68.30463 35044 ft 437 kts 176°
2026-05-01 08:17 43.70195 68.31278 35043 ft 438 kts 176°
2026-05-01 08:17 43.64125 68.32097 35034 ft 437 kts 176°
2026-05-01 08:18 43.58069 68.32909 35018 ft 438 kts 176°
2026-05-01 08:19 43.45930 68.34535 34984 ft 440 kts 176°
2026-05-01 08:19 43.39863 68.35349 34969 ft 441 kts 176°
2026-05-01 08:20 43.33787 68.36380 34962 ft 443 kts 172°
2026-05-01 08:20 43.27781 68.38256 34956 ft 445 kts 166°
2026-05-01 08:21 43.21904 68.41032 34952 ft 448 kts 161°
2026-05-01 08:21 43.16124 68.44163 34950 ft 448 kts 161°
2026-05-01 08:22 43.10317 68.47295 34946 ft 448 kts 160°
2026-05-01 08:22 43.04542 68.50407 34944 ft 448 kts 161°
2026-05-01 08:23 42.98755 68.53520 34942 ft 449 kts 160°
2026-05-01 08:23 42.92929 68.56648 34938 ft 449 kts 161°
2026-05-01 08:24 42.87113 68.59764 34932 ft 450 kts 161°
2026-05-01 08:24 42.81294 68.62878 34940 ft 450 kts 160°
2026-05-01 08:25 42.75478 68.66019 34942 ft 450 kts 161°
2026-05-01 08:25 42.69672 68.69159 34941 ft 451 kts 161°
2026-05-01 08:26 42.63869 68.72292 34939 ft 450 kts 161°
2026-05-01 08:26 42.58030 68.75439 34936 ft 450 kts 161°
2026-05-01 08:27 42.52239 68.78551 34938 ft 450 kts 161°
2026-05-01 08:27 42.46410 68.81674 34940 ft 451 kts 161°
2026-05-01 08:28 42.40527 68.84430 34937 ft 449 kts 166°
2026-05-01 08:28 42.34534 68.86796 34945 ft 450 kts 166°
2026-05-01 08:29 42.28540 68.89168 34941 ft 450 kts 166°
2026-05-01 08:29 42.22525 68.91544 34911 ft 450 kts 166°
2026-05-01 08:29 42.19527 68.92724 34547 ft 450 kts 166°
2026-05-01 08:30 42.16566 68.93887 34002 ft 449 kts 166°
2026-05-01 08:30 42.13571 68.95065 33170 ft 449 kts 166°
2026-05-01 08:30 42.10573 68.96246 32357 ft 449 kts 166°
2026-05-01 08:30 42.07585 68.97420 31551 ft 449 kts 166°
2026-05-01 08:31 42.04584 68.98598 30708 ft 451 kts 166°
2026-05-01 08:31 42.01573 68.99777 29846 ft 452 kts 166°
2026-05-01 08:31 41.98590 69.00943 28969 ft 454 kts 166°
2026-05-01 08:31 41.95557 69.02061 28087 ft 454 kts 168°
2026-05-01 08:32 41.92499 69.03078 27178 ft 455 kts 168°
2026-05-01 08:32 41.89410 69.04113 26298 ft 454 kts 167°
2026-05-01 08:32 41.86365 69.05137 25740 ft 448 kts 167°
2026-05-01 08:32 41.83358 69.06145 25186 ft 444 kts 167°
2026-05-01 08:33 41.80374 69.07146 24619 ft 440 kts 167°
2026-05-01 08:33 41.77420 69.08132 24027 ft 436 kts 167°
2026-05-01 08:33 41.74493 69.09109 23467 ft 431 kts 167°
2026-05-01 08:33 41.71624 69.10068 22923 ft 428 kts 167°
2026-05-01 08:34 41.68745 69.11028 22382 ft 424 kts 167°
2026-05-01 08:34 41.65920 69.11968 21847 ft 420 kts 167°
2026-05-01 08:34 41.63087 69.12912 21325 ft 415 kts 167°
2026-05-01 08:34 41.60321 69.13832 21052 ft 403 kts 167°
2026-05-01 08:35 41.57643 69.14724 20848 ft 390 kts 167°
2026-05-01 08:35 41.55075 69.15576 20579 ft 379 kts 167°
2026-05-01 08:35 41.52548 69.16415 20418 ft 367 kts 167°
2026-05-01 08:35 41.50106 69.17198 20162 ft 358 kts 170°
2026-05-01 08:36 41.47631 69.17270 19598 ft 357 kts 190°
2026-05-01 08:36 41.45322 69.16161 19036 ft 358 kts 211°
2026-05-01 08:36 41.43457 69.13998 18572 ft 356 kts 230°
2026-05-01 08:36 41.42131 69.11221 18100 ft 356 kts 244°
2026-05-01 08:37 41.41176 69.08182 17617 ft 355 kts 244°
2026-05-01 08:37 41.40023 69.05338 17138 ft 352 kts 235°
2026-05-01 08:37 41.38509 69.02827 16665 ft 349 kts 225°
2026-05-01 08:37 41.36688 69.00695 16209 ft 346 kts 216°
2026-05-01 08:38 41.34663 68.98981 15753 ft 343 kts 208°
2026-05-01 08:38 41.32516 68.97672 15303 ft 341 kts 200°
2026-05-01 08:38 41.30260 68.96729 14856 ft 339 kts 194°
2026-05-01 08:38 41.27974 68.96156 14417 ft 337 kts 187°
2026-05-01 08:39 41.25636 68.95927 13965 ft 336 kts 181°
2026-05-01 08:39 41.23304 68.96042 13525 ft 334 kts 175°
2026-05-01 08:39 41.21029 68.96481 13082 ft 333 kts 169°
2026-05-01 08:39 41.18793 68.97237 12639 ft 332 kts 163°
2026-05-01 08:40 41.14556 68.99663 11767 ft 330 kts 151°
2026-05-01 08:40 41.12642 69.01266 11334 ft 329 kts 145°
2026-05-01 08:40 41.10844 69.03140 10894 ft 328 kts 139°
2026-05-01 08:41 41.09221 69.05220 10463 ft 326 kts 133°
2026-05-01 08:41 41.07777 69.07492 10183 ft 318 kts 126°
2026-05-01 08:41 41.06552 69.09869 10090 ft 304 kts 121°
2026-05-01 08:41 41.05551 69.12268 10022 ft 290 kts 115°
2026-05-01 08:42 41.04756 69.14657 9799 ft 284 kts 110°
2026-05-01 08:42 41.04125 69.17128 9445 ft 284 kts 105°
2026-05-01 08:42 41.03665 69.19656 9108 ft 283 kts 100°
2026-05-01 08:42 41.03377 69.22215 8758 ft 281 kts 95°
2026-05-01 08:43 41.03258 69.24797 8419 ft 279 kts 90°
2026-05-01 08:43 41.03305 69.27335 8102 ft 277 kts 85°
2026-05-01 08:43 41.03514 69.29837 7778 ft 275 kts 80°
2026-05-01 08:43 41.03886 69.32311 7459 ft 273 kts 75°
2026-05-01 08:44 41.04409 69.34714 7160 ft 271 kts 70°
2026-05-01 08:44 41.05083 69.37047 6826 ft 270 kts 65°
2026-05-01 08:44 41.05900 69.39285 6494 ft 269 kts 60°
2026-05-01 08:44 41.06838 69.41394 6182 ft 268 kts 56°
2026-05-01 08:45 41.07920 69.43417 5861 ft 267 kts 51°
2026-05-01 08:45 41.09101 69.45280 5554 ft 266 kts 46°
2026-05-01 08:45 41.10411 69.47025 5239 ft 265 kts 41°
2026-05-01 08:45 41.11791 69.48586 4951 ft 262 kts 37°
2026-05-01 08:46 41.13273 69.50001 4705 ft 258 kts 32°
2026-05-01 08:46 41.14767 69.51196 4688 ft 243 kts 27°
2026-05-01 08:46 41.16230 69.52177 4664 ft 229 kts 23°
2026-05-01 08:46 41.17691 69.52927 4626 ft 221 kts 12°
2026-05-01 08:47 41.19174 69.53136 4572 ft 208 kts 355°
2026-05-01 08:47 41.20570 69.52951 4556 ft 193 kts 352°
2026-05-01 08:47 41.21860 69.52728 4403 ft 183 kts 351°
2026-05-01 08:47 41.23073 69.52512 4271 ft 171 kts 351°
2026-05-01 08:48 41.24216 69.52311 4129 ft 160 kts 351°
2026-05-01 08:48 41.25323 69.52119 3871 ft 157 kts 351°
2026-05-01 08:48 41.26386 69.51937 3670 ft 155 kts 351°
2026-05-01 08:48 41.27463 69.51730 3468 ft 155 kts 342°
2026-05-01 08:49 41.28263 69.50903 3242 ft 151 kts 287°
2026-05-01 08:49 41.28305 69.49502 3285 ft 154 kts 263°
2026-05-01 08:49 41.28126 69.48088 3308 ft 154 kts 261°
2026-05-01 08:49 41.27928 69.46701 3320 ft 154 kts 261°
2026-05-01 08:50 41.27744 69.45288 3346 ft 154 kts 262°
2026-05-01 08:50 41.27578 69.43886 3347 ft 154 kts 262°
2026-05-01 08:50 41.27419 69.42470 3183 ft 154 kts 263°
2026-05-01 08:50 41.27266 69.41068 3016 ft 150 kts 262°
2026-05-01 08:51 41.27123 69.39764 2813 ft 139 kts 262°
2026-05-01 08:51 41.26987 69.38505 2632 ft 136 kts 261°
2026-05-01 08:51 41.26852 69.37270 2462 ft 135 kts 261°
2026-05-01 08:51 41.26716 69.36031 2292 ft 136 kts 260°
2026-05-01 08:52 41.26581 69.34792 2125 ft 136 kts 258°
2026-05-01 08:52 41.26442 69.33543 1959 ft 135 kts 262°
2026-05-01 08:52 41.26305 69.32317 1787 ft 135 kts 258°
2026-05-01 08:52 41.26165 69.31087 1628 ft 134 kts 262°
2026-05-01 08:53 41.26043 69.29871 1468 ft 132 kts 259°
2026-05-01 08:53 41.25912 69.28710 1423 ft 111 kts 260°
2026-05-01 08:53 41.25820 69.27918 1422 ft 61 kts 260°
2026-05-01 08:53 41.25777 69.27467 1422 ft 35 kts 261°
2026-05-01 08:54 41.25737 69.27155 1422 ft 32 kts 263°
2026-05-01 08:54 41.25708 69.26866 1422 ft 30 kts 259°
2026-05-01 08:54 41.25674 69.26599 1422 ft 28 kts 259°
2026-05-01 08:54 41.25676 69.26428 1422 ft 3 kts 301°
2026-05-01 08:55 41.25697 69.26399 1422 ft 4 kts 331°
2026-05-01 08:55 41.25739 69.26405 1422 ft 8 kts 20°
2026-05-01 08:55 41.25784 69.26474 1422 ft 12 kts 67°
2026-05-01 08:55 41.25822 69.26595 1422 ft 16 kts 67°
2026-05-01 08:56 41.25874 69.26746 1422 ft 19 kts 65°
2026-05-01 08:56 41.25941 69.26918 1422 ft 22 kts 67°
2026-05-01 08:56 41.26001 69.27084 1422 ft 10 kts 62°
2026-05-01 08:56 41.26055 69.27100 1422 ft 6 kts 334°
2026-05-01 08:57 41.26067 69.27092 1422 ft 0 kts 335°